Previsão horária em Abartzuza

Hoje, 21 Janeiro, Quinta-feira

Tempo Temperatura Precipitação Vento Pressão Humidade
00:00 +6°C° 0 mm 2 m/s 702 mmHg 89%
01:00 +6°C° 0 mm 2 m/s 702 mmHg 90%
02:00 +5°C° 0 mm 2 m/s 702 mmHg 91%
03:00 +6°C° 0 mm 1 m/s 702 mmHg 93%
04:00 +5°C° 0 mm 2 m/s 702 mmHg 93%
05:00 +5°C° 0 mm 2 m/s 703 mmHg 92%
06:00 +5°C° 0 mm 2 m/s 703 mmHg 92%
07:00 +5°C° 0 mm 2 m/s 703 mmHg 91%
08:00 +6°C° 0 mm 2 m/s 703 mmHg 89%
09:00 +6°C° 0 mm 2 m/s 703 mmHg 88%
10:00 +7°C° 0 mm 3 m/s 703 mmHg 82%
11:00 +9°C° 0 mm 3 m/s 703 mmHg 77%
12:00 +10°C° 0 mm 3 m/s 703 mmHg 71%
13:00 +10°C° 0 mm 3 m/s 703 mmHg 71%
14:00 +10°C° 0 mm 3 m/s 702 mmHg 72%
15:00 +10°C° 0 mm 3 m/s 702 mmHg 72%
16:00 +9°C° 0.1 mm 3 m/s 701 mmHg 76%
17:00 +8°C° 0.1 mm 3 m/s 701 mmHg 80%
18:00 +8°C° 0.1 mm 2 m/s 701 mmHg 85%
19:00 +7°C° 0 mm 2 m/s 701 mmHg 85%
20:00 +7°C° 0 mm 2 m/s 701 mmHg 85%
21:00 +7°C° 0 mm 2 m/s 701 mmHg 85%
22:00 +6°C° 0 mm 2 m/s 701 mmHg 85%
23:00 +6°C° 0 mm 2 m/s 701 mmHg 86%

Amanhã, 22 Janeiro, Sexta-feira

Tempo Temperatura Precipitação Vento Pressão Humidade
00:00 +6°C° 0 mm 2 m/s 700 mmHg 86%
01:00 +6°C° 0 mm 2 m/s 699 mmHg 85%
02:00 +5°C° 0 mm 3 m/s 698 mmHg 84%
03:00 +7°C° 0 mm 3 m/s 698 mmHg 83%
04:00 +6°C° 0.9 mm 4 m/s 697 mmHg 85%
05:00 +6°C° 0.9 mm 4 m/s 696 mmHg 87%
06:00 +6°C° 0.9 mm 4 m/s 695 mmHg 89%
07:00 +6°C° 0.4 mm 5 m/s 696 mmHg 86%
08:00 +5°C° 0.4 mm 5 m/s 696 mmHg 84%
09:00 +4°C° 0.4 mm 6 m/s 697 mmHg 81%
10:00 +4°C° 0.5 mm 6 m/s 698 mmHg 83%
11:00 +4°C° 0.5 mm 7 m/s 699 mmHg 84%
12:00 +4°C° 0.5 mm 7 m/s 699 mmHg 85%
13:00 +4°C° 0.1 mm 7 m/s 700 mmHg 84%
14:00 +4°C° 0.1 mm 6 m/s 700 mmHg 83%
15:00 +3°C° 0.1 mm 6 m/s 701 mmHg 81%
16:00 +4°C° 0 mm 4 m/s 702 mmHg 83%
17:00 +3°C° 0 mm 3 m/s 702 mmHg 85%
18:00 +3°C° 0 mm 2 m/s 703 mmHg 86%
19:00 +3°C° 0 mm 2 m/s 703 mmHg 87%
20:00 +3°C° 0 mm 1 m/s 704 mmHg 87%
21:00 +3°C° 0 mm 1 m/s 704 mmHg 88%
22:00 +3°C° 0 mm 1 m/s 704 mmHg 87%
23:00 +3°C° 0 mm 1 m/s 704 mmHg 87%

Depois de amanhã, 23 Janeiro, Sábado

Tempo Temperatura Precipitação Vento Pressão Humidade
00:00 +1°C° 0 mm 2 m/s 704 mmHg 86%
01:00 +2°C° 0 mm 2 m/s 703 mmHg 86%
02:00 +2°C° 0 mm 2 m/s 703 mmHg 87%
03:00 +1°C° 0 mm 3 m/s 702 mmHg 87%
04:00 +1°C° 0.1 mm 3 m/s 702 mmHg 87%
05:00 +2°C° 0.1 mm 3 m/s 702 mmHg 88%
06:00 +2°C° 0.1 mm 3 m/s 702 mmHg 88%
07:00 +3°C° 0.2 mm 3 m/s 702 mmHg 87%
08:00 +3°C° 0.2 mm 3 m/s 703 mmHg 87%
09:00 +3°C° 0.2 mm 3 m/s 703 mmHg 86%
10:00 +4°C° 0.1 mm 4 m/s 703 mmHg 79%
11:00 +5°C° 0.1 mm 5 m/s 703 mmHg 72%
12:00 +6°C° 0.1 mm 5 m/s 704 mmHg 64%
13:00 +6°C° 0.1 mm 4 m/s 703 mmHg 69%
14:00 +5°C° 0.1 mm 3 m/s 702 mmHg 73%
15:00 +6°C° 0.1 mm 2 m/s 701 mmHg 77%
16:00 +5°C° 1.3 mm 2 m/s 701 mmHg 83%
17:00 +4°C° 1.3 mm 2 m/s 700 mmHg 90%
18:00 +3°C° 1.3 mm 2 m/s 700 mmHg 96%
19:00 +4°C° 1 mm 1 m/s 699 mmHg 96%
20:00 +4°C° 1 mm 1 m/s 699 mmHg 97%
21:00 +4°C° 1 mm 1 m/s 699 mmHg 97%
22:00 +5°C° 0.6 mm 1 m/s 699 mmHg 97%
23:00 +5°C° 0.6 mm 1 m/s 699 mmHg 97%

24 Janeiro, Domingo

Tempo Temperatura Precipitação Vento Pressão Humidade
00:00 +5°C° 0.6 mm 1 m/s 699 mmHg 96%
01:00 +4°C° 0.6 mm 2 m/s 700 mmHg 96%
02:00 +3°C° 0.6 mm 2 m/s 700 mmHg 95%
03:00 +2°C° 0.6 mm 3 m/s 701 mmHg 94%
04:00 +2°C° 0.2 mm 3 m/s 701 mmHg 94%
05:00 +2°C° 0.2 mm 3 m/s 702 mmHg 93%
06:00 +3°C° 0.2 mm 2 m/s 702 mmHg 93%
07:00 +2°C° 0.2 mm 3 m/s 703 mmHg 92%
08:00 +2°C° 0.2 mm 3 m/s 703 mmHg 91%
09:00 +1°C° 0.2 mm 4 m/s 704 mmHg 90%
10:00 +3°C° 0.4 mm 4 m/s 704 mmHg 88%
11:00 +3°C° 0.4 mm 4 m/s 704 mmHg 86%
12:00 +3°C° 0.4 mm 4 m/s 705 mmHg 85%
13:00 +3°C° 0.2 mm 5 m/s 705 mmHg 81%
14:00 +3°C° 0.2 mm 5 m/s 705 mmHg 77%
15:00 +4°C° 0.2 mm 6 m/s 705 mmHg 74%
16:00 +2°C° 0.8 mm 5 m/s 705 mmHg 79%
17:00 +1°C° 0.8 mm 4 m/s 706 mmHg 85%
18:00 +1°C° 0.8 mm 3 m/s 706 mmHg 90%
19:00 +2°C° 0.3 mm 3 m/s 706 mmHg 91%
20:00 +2°C° 0.3 mm 3 m/s 707 mmHg 91%
21:00 +2°C° 0.3 mm 3 m/s 707 mmHg 92%
22:00 +2°C° 0.4 mm 3 m/s 707 mmHg 93%
23:00 +2°C° 0.4 mm 3 m/s 708 mmHg 93%

25 Janeiro, Segunda-feira

Tempo Temperatura Precipitação Vento Pressão Humidade
00:00 +2°C° 0.4 mm 3 m/s 708 mmHg 94%
01:00 +2°C° 0.7 mm 2 m/s 708 mmHg 94%
02:00 +2°C° 0.7 mm 2 m/s 708 mmHg 95%
03:00 +2°C° 0.7 mm 2 m/s 709 mmHg 95%
04:00 +2°C° 0.5 mm 2 m/s 709 mmHg 95%
05:00 +2°C° 0.5 mm 2 m/s 709 mmHg 95%
06:00 +2°C° 0.5 mm 2 m/s 709 mmHg 96%
07:00 +2°C° 0.5 mm 2 m/s 710 mmHg 95%
08:00 +2°C° 0.5 mm 2 m/s 711 mmHg 94%
09:00 +2°C° 0.5 mm 2 m/s 711 mmHg 93%
10:00 +3°C° 0.2 mm 2 m/s 711 mmHg 91%
11:00 +3°C° 0.2 mm 2 m/s 712 mmHg 90%
12:00 +4°C° 0.2 mm 2 m/s 712 mmHg 88%
13:00 +5°C° 0 mm 1 m/s 712 mmHg 86%
14:00 +6°C° 0 mm 1 m/s 712 mmHg 85%
15:00 +6°C° 0 mm 1 m/s 711 mmHg 84%
16:00 +5°C° 0 mm 1 m/s 712 mmHg 85%
17:00 +5°C° 0 mm 1 m/s 712 mmHg 87%
18:00 +4°C° 0 mm 1 m/s 712 mmHg 89%
19:00 +4°C° 0 mm 1 m/s 712 mmHg 89%
20:00 +4°C° 0 mm 1 m/s 712 mmHg 89%
21:00 +3°C° 0 mm 1 m/s 712 mmHg 89%
22:00 +3°C° 0 mm 1 m/s 712 mmHg 89%
23:00 +3°C° 0 mm 1 m/s 712 mmHg 89%

26 Janeiro, Terça-feira

Tempo Temperatura Precipitação Vento Pressão Humidade
00:00 +3°C° 0 mm 1 m/s 712 mmHg 89%
01:00 +3°C° 0 mm 1 m/s 712 mmHg 89%
02:00 +3°C° 0 mm 1 m/s 711 mmHg 89%
03:00 +3°C° 0 mm 1 m/s 711 mmHg 89%
04:00 +3°C° 0 mm 1 m/s 711 mmHg 89%
05:00 +4°C° 0 mm 1 m/s 711 mmHg 88%
06:00 +4°C° 0 mm 1 m/s 710 mmHg 88%
07:00 +4°C° 0.1 mm 1 m/s 710 mmHg 88%
08:00 +4°C° 0.1 mm 1 m/s 710 mmHg 88%
09:00 +3°C° 0.1 mm 2 m/s 710 mmHg 88%
10:00 +5°C° 0.8 mm 1 m/s 710 mmHg 90%
11:00 +5°C° 0.8 mm 1 m/s 710 mmHg 91%
12:00 +5°C° 0.8 mm 1 m/s 710 mmHg 93%
13:00 +6°C° 0.8 mm 1 m/s 710 mmHg 94%
14:00 +6°C° 0.8 mm 1 m/s 710 mmHg 94%
15:00 +7°C° 0.8 mm 1 m/s 710 mmHg 95%
16:00 +7°C° 0.8 mm 1 m/s 711 mmHg 95%
17:00 +7°C° 0.8 mm 1 m/s 711 mmHg 96%
18:00 +8°C° 0.8 mm 1 m/s 711 mmHg 96%
19:00 +8°C° 0.4 mm 1 m/s 712 mmHg 96%
20:00 +8°C° 0.4 mm 1 m/s 712 mmHg 96%
21:00 +9°C° 0.4 mm 1 m/s 713 mmHg 97%
22:00 +9°C° 0.5 mm 1 m/s 713 mmHg 96%
23:00 +9°C° 0.5 mm 1 m/s 713 mmHg 96%
Mostrar mais